Location: George Washington National Forest Helicopter Landing Site
(38.6463°N, 79.0851°W)
Time: 04:47:10
(UTC-04:00)

Tiros 1 despin weight - Pass Details

Date: 23 August 2019
Orbit: 594 x 642 km, 48.2° (Epoch: 19 September)

Event Time Altitude Azimuth Distance (km) Brightness Sun altitude
Rises 08:11:18 0° 283° (WNW) 2,902 ? 17.3°
Reaches altitude 10° 08:15:05 10° 252° (WSW) 2,001 ? 18.0°
Maximum altitude 08:16:43 12° 231° (SW) 1,888 ? 18.3°
Drops below altitude 10° 08:18:22 10° 210° (SSW) 2,006 ? 18.6°
Sets 08:22:11 0° 178° (S) 2,916 ? 19.4°
